Regional Weather Roundup
Issued by NWS Sterling, VA

Home | Current Version | Previous Version | Text Only | Print | Product List | Glossary On
Versions: 1 2 3 4 5 6 7 8 9 10 11 12 13 14 15 16 17 18 19 20 21 22 23 24 25 26 27 28 29 30 31 32 33 34 35 36 37 38 39 40 41 42 43 44 45 46 47 48 49 50
000
ASUS41 KLWX 221410
RWRLWX

REGIONAL WEATHER ROUNDUP
NATIONAL WEATHER SERVICE BALTIMORE MD/WASHINGTON DC
1000 AM EDT MON SEP 22 2014

Note: "FAIR" indicates few or no clouds below 12,000 feet
with no significant weather and/or obstructions to visibility.
 TC=TEMPERATURE CELSIUS

 * =Non NWS site. Station does not report precipitation (e.g. rain,
    snow, etc.), thunder, or fog.

DCZ001-MDZ009-015-VAZ040>042-051-053>054-221500-
WASHINGTON METRO

CITY           SKY/WX    TMP DP  RH WIND       PRES   REMARKS
WASHINGTON NAT MOSUNNY   70  48  45 NW18G24   30.00R
DULLES         MOSUNNY   65  47  52 NW21G28   30.02R
ANDREWS AFB    SUNNY     68  48  48 NW22      29.99R
QUANTICO       MOSUNNY   69  49  48 NW17G26   30.02R
COLLEGE PARK*  MOSUNNY   68  50  52 W12G20    29.99R
LEESBURG*      CLOUDY    64  52  63 NW15      30.03R
MANASSAS*      SUNNY     66  52  59 NW15G23   30.02R
GAITHERSBURG*  SUNNY     63  46  55 NW21G26   30.04R

$$

MDZ006>007-011-014-221500-
BALTIMORE METRO

CITY           SKY/WX    TMP DP  RH WIND       PRES   REMARKS
BWI AIRPORT    MOSUNNY   67  47  48 W22G29    29.98R
MD SCIENCE CTR   N/A     67  47  48 MISG      29.98R
MARTIN STATE   MOSUNNY   70  50  49 NW22G28   29.98R
ANNAPOLIS      SUNNY     67  50  54 NW13G23   29.98R
FORT MEADE*    SUNNY     64  50  59 NW10G18   30.01R

$$

MDZ012-015-019>023-221500-
MARYLAND EASTERN SHORE

CITY           SKY/WX    TMP DP  RH WIND       PRES   REMARKS
OCEAN CITY     SUNNY     71  51  49 NW14G23   29.96R
SALISBURY      SUNNY     73  52  47 NW9       29.97R
BAY BRIDGE AP*   N/A     66  48  52 NW15      29.98R
CAMBRIDGE*     SUNNY     72  50  46 NW13G18   29.97R
EASTON*        SUNNY     70  54  56 NW15G22   30.01R

$$

MDZ017>025-221500-
SOUTHERN MARYLAND

CITY           SKY/WX    TMP DP  RH WIND       PRES   REMARKS
PATUXENT RIVER MOSUNNY   70  50  49 NW17      29.99R
ST INIGOES     SUNNY     71  49  45 NW10G16   29.98R
LEONARDTOWN*   SUNNY     66  50  55 W8G18     30.00R

$$

MDZ003>005-221500-
NORTH CENTRAL MARYLAND

CITY           SKY/WX    TMP DP  RH WIND       PRES   REMARKS
FREDERICK*     MOSUNNY   68  52  56 W16       30.05R
HAGERSTOWN APT MOSUNNY   62  46  55 NW21G26   30.02R
WESTMINSTER*   PTSUNNY   61  46  59 NW14G23   30.01R

$$

MDZ501>502-221500-
WESTERN MARYLAND

CITY           SKY/WX    TMP DP  RH WIND       PRES   REMARKS
OAKLAND*       CLOUDY    43 N/A N/A NW9G18    30.10R HAZE
CUMBERLAND*    CLOUDY    61  43  51 N15G22    30.12R

$$

VAZ025>031-221500-
SHENANDOAH VALLEY

CITY           SKY/WX    TMP DP  RH WIND       PRES   REMARKS
WINCHESTER*    CLOUDY    61  46  59 NW14      30.05R
STAUNTON*      MOSUNNY   65  47  52 NW6       30.08R

$$

WVZ021-048>050-054>055-221500-
EASTERN WEST VIRGINIA PANHANDLE

CITY           SKY/WX    TMP DP  RH WIND       PRES   REMARKS
MARTINSBURG    MOSUNNY   62  43  49 NW13G28   30.05R
PETERSBURG*    CLOUDY    58  43  57 NW7       30.11R

$$

VAZ036>039-050-221500-
CENTRAL FOOTHILLS

CITY           SKY/WX    TMP DP  RH WIND       PRES   REMARKS
CHARLOTTESVILL MOSUNNY   67  48  50 NW7       30.03R
ORANGE*        SUNNY     68  48  49 NW10      30.04R

$$

VAZ055>057-221500-
NORTH AND CENTRAL PIEDMONT

CITY           SKY/WX    TMP DP  RH WIND       PRES   REMARKS
FREDERICKSBRG* SUNNY     69  51  53 NW8G16    30.01R
STAFFORD*      SUNNY     69  51  52 NW13G23   30.05R

$$

NCZ024-NYZ072-PAZ021-071-VAZ022-071-221500-
OTHER REGIONAL OBSERVATIONS

CITY           SKY/WX    TMP DP  RH WIND       PRES   REMARKS
NEW YORK CITY  PTSUNNY   66  51  58 VRB7      29.89R
PHILADELPHIA   MOSUNNY   67  49  52 W16G24    29.93R
PITTSBURGH     MOSUNNY   55  43  63 W14       30.10R
ROANOKE        MOSUNNY   63  47  55 W14G21    30.11R
RICHMOND       MOSUNNY   74  46  36 NW10      30.01R
RALEIGH        MOSUNNY   69  52  54 N8        30.06R

$$

ANZ530>537-221500-
MARINE OBSERVATIONS

STATION/POSITION TIME  TEMP    WIND        PRES
                       AIR SEA DIR/SP/G
                 (UTC) (F)     (DEG/KT/KT) (MB)
THOMAS PT LIGHT  1400   65 73  320/ 14/ 19 1016.2R
BALT KEY BRIDGE  1400   65     290/ 20/ 25 1015.0R
COVE POINT       1400   65     340/ 18/ 21 1015.2R
LEWISETTA        1400   69 74  320/ 14/ 20 1015.3R
SOLOMONS ISLAND  1400      75                N/A
PINEY POINT      1400          350/ 19/ 22   N/A

$$




USA.gov is the U.S. government's official web portal to all federal, state and local government web resources and services.